Location: Wells
(51.2093°N, 2.6446°W)
Time: 08:43:32
(UTC+01:00)

SO-50 - Pass Details

Date: 23 March 2026
Orbit: 567 x 673 km, 64.6° (Epoch: 17 April)

Event Time Altitude Azimuth Distance (km) Brightness Sun altitude
Rises 18:59:01 0° 278° (W) 2,987 ? -5.6°
Reaches altitude 10° 19:01:52 10° 295° (WNW) 2,091 ? -6.0°
Maximum altitude 19:05:24 20° 343° (NNW) 1,539 ? -6.5°
Drops below altitude 10° 19:08:58 10° 31° (NNE) 2,114 ? -7.1°
Sets 19:11:52 0° 48° (NE) 3,032 ? -7.5°
